Location: Newark
(47.5000°N, 4.6167°E)
Time: 08:01:56
(UTC+00:00)

ISS - Pass Details

Date: 07 December 2021
Orbit: 413 x 422 km, 51.6° (Epoch: 27 January)

Event Time Altitude Azimuth Distance (km) Brightness Sun altitude
Rises 17:37:31 0° 289° (WNW) 2,386 1.0 -17.2°
Reaches altitude 10° 17:39:55 10° 274° (W) 1,514 0.2 -17.6°
Maximum altitude 17:42:38 22° 221° (SW) 971 -1.3 -18.1°
Drops below altitude 10° 17:45:19 10° 168° (SSE) 1,500 -0.9 -18.5°
Enters shadow 17:46:31 - 158° (SSE) 1,916 -0.5 -18.7°
